Terug naar catalogus

COSMOS 1752

ActiefMilitairLEO
NORAD 16762·PAYLOAD·🇷🇺 Russia

Gelanceerd Jun 6, 1986 vanaf Plesetsk Cosmodrome

Loading…

Volgende Passages (komende 24 uur)

TLE

VersSource: Space-Track

Epoch: Sep 14, 2026, 13:54 UTC

1 16762U 86042E   26257.57926197 -.00000003  00000-0  88262-4 0  9994
2 16762  74.0191 311.8063 0012257 245.4589 186.3557 12.47018322833461

Volg COSMOS 1752 in realtime met AllMySat

Download on the App Store